Regional Weather Roundup
Issued by NWS

Home | Current Version | Previous Version | Graphics & Text | Print | Product List | Glossary On
Versions: 1 2 3 4 5 6 7 8 9 10 11 12 13 14 15 16 17 18 19 20 21 22 23 24 25 26 27 28 29 30 31 32 33 34 35 36 37 38 39 40 41 42 43 44 45 46 47 48 49 50
000
ASUS43 KOAX 290110
RWRNE

WEATHER ROUNDUP FOR NEBRASKA
NATIONAL WEATHER SERVICE OMAHA NE
800 PM CDT TUE MAR 28 2017

NOTES: SATELLITE DATA IS BEING USED TO AUGMENT CLOUD COVER ABOVE
       12000 FEET.
       "FAIR" INDICATES FEW OR NO CLOUDS BELOW 12,000 FEET WITH NO
       SIGNIFICANT WEATHER AND/OR OBSTRUCTIONS TO VISIBILITY.

  * THESE STATIONS DO NOT REPORT WEATHER SUCH AS RAIN...SNOW OR FOG.

NEZ001>004-019>022-054>056-290200-
NEBRASKA PANHANDLE

CITY           SKY/WX    TMP DP  RH WIND       PRES   REMARKS
SCOTTSBLUFF    LGT RAIN  43  40  89 E8        30.05R
ALLIANCE       LGT RAIN  40  39  97 E12       30.06R FOG     WCI  33
CHADRON        LGT RAIN  43  39  86 E9        30.10R
KIMBALL        RAIN      41  41 100 E10       30.02R
SIDNEY         CLOUDY    40  38  93 E15G23    30.01R FOG     WCI  32
$$

NEZ057>060-069>072-079>082-290200-
SOUTHWEST NEBRASKA

CITY           SKY/WX    TMP DP  RH WIND       PRES   REMARKS
NORTH PLATTE   LGT RAIN  45  42  89 NE13      30.04F FOG
IMPERIAL       LGT RAIN  43  41  93 E18       29.97R
LEXINGTON      LGT RAIN  45  42  89 NE9       30.06R
MCCOOK         LGT RAIN  45  45 100 E16G24    29.99F FOG
OGALLALA       LGT RAIN  45  43  93 E15       30.01S
$$

NEZ005>010-023>029-035>040-094-290200-
NORTH CENTRAL NEBRASKA

CITY           SKY/WX    TMP DP  RH WIND       PRES   REMARKS
VALENTINE      LGT RAIN  43  40  89 NE8       30.14R FOG
AINSWORTH      RAIN      45  44  97 NE7       30.12R
BROKEN BOW     LGT RAIN  47  39  74 NE5       30.06F
O`NEILL        CLOUDY    51  41  68 NE6       30.11R
ORD            CLOUDY    47  40  76 E5        30.07S
THEDFORD       RAIN      43  42  95 E5        30.10S
$$

NEZ041-046>049-061>064-073>077-083>087-290200-
SOUTH CENTRAL NEBRASKA

CITY           SKY/WX    TMP DP  RH WIND       PRES   REMARKS
GRAND ISLAND   CLOUDY    45  42  89 E9        30.09R
AURORA         CLOUDY    46  42  88 E7        30.08R
HASTINGS       LGT RAIN  45  41  86 NE10      30.07R
HEBRON         CLOUDY    48  40  74 NE9       30.02F
HOLDREGE       RAIN      44  42  92 NE13      30.04F
KEARNEY *      CLOUDY    45  39  81 E10       30.07R
YORK           CLOUDY    46  41  81 NE8       30.09R
$$

NEZ011>018-030>034-042>045-290200-
NORTHEAST NEBRASKA

CITY           SKY/WX    TMP DP  RH WIND       PRES   REMARKS
NORFOLK        MOCLDY    49  41  74 S9        30.08S
ALBION         CLOUDY    48  42  79 CALM      30.09S
BLAIR          CLOUDY    49  43  80 E9        30.09F
FREMONT        CLOUDY    49  42  75 E6        30.10F
TEKAMAH        CLOUDY    50  42  74 E8        30.11S
WAYNE          MOCLDY    52  44  74 SE10      30.10R
$$

NEZ050>053-065>068-078-088>093-290200-
SOUTHEAST NEBRASKA

CITY           SKY/WX    TMP DP  RH WIND       PRES   REMARKS
LINCOLN        CLOUDY    48  41  76 NE12      30.09F
OMAHA EPPLEY   CLOUDY    50  41  71 NE7       30.09F
BEATRICE       CLOUDY    50  44  79 NE10      30.04R
FALLS CITY     CLOUDY    52  47  83 E6        30.04F
NEBRASKA CITY  CLOUDY    49  41  73 NE9       30.07F
PLATTSMOUTH    CLOUDY    49  40  72 N7        30.07F
$$

NEZ044-045-051>053-067-290200-
OMAHA AREA

CITY           SKY/WX    TMP DP  RH WIND       PRES   REMARKS
OMAHA EPPLEY   CLOUDY    50  41  71 NE7       30.09F
BLAIR          CLOUDY    49  43  80 E9        30.09F
FREMONT        CLOUDY    49  42  75 E6        30.10F
MILLARD        CLOUDY    51  44  75 NE5       30.09F
OFFUTT AFB     CLOUDY    49  42  76 NE6       30.07F
PLATTSMOUTH    CLOUDY    49  40  72 N7        30.07F
WAHOO          CLOUDY    47  43  84 E5        30.09F
$$




USA.gov is the U.S. government's official web portal to all federal, state and local government web resources and services.